Time,TemperatureF,DewpointF,PressureIn,WindDirection,WindDirectionDegrees,WindSpeedMPH,WindSpeedGustMPH,Humidity,HourlyPrecipIn,Conditions,Clouds,dailyrainin,SolarRadiationWatts/m^2,SoftwareType,DateUTC
2013-02-20 00:02:00,10.0,5.0,-100.00,North,352,12.0,24.0,81,0.00,,,0.00,1.000000,,2013-02-20 05:02:00,
2013-02-20 00:12:00,10.0,5.0,-100.00,North,352,12.0,24.0,81,0.00,,,0.00,1.000000,,2013-02-20 05:12:00,
2013-02-20 00:43:00,10.0,4.0,-100.00,North,352,14.0,24.0,77,0.00,,,0.00,1.000000,,2013-02-20 05:43:00,
2013-02-20 00:52:00,10.0,4.0,-100.00,North,352,14.0,24.0,77,0.00,,,0.00,1.000000,,2013-02-20 05:52:00,
2013-02-20 01:01:00,10.0,4.0,-100.00,North,352,14.0,24.0,77,0.00,,,0.00,1.000000,,2013-02-20 06:01:00,
2013-02-20 01:11:00,10.0,4.0,-100.00,North,352,14.0,24.0,77,0.00,,,0.00,1.000000,,2013-02-20 06:11:00,
2013-02-20 01:42:00,10.0,5.0,-100.00,NNW,346,9.0,23.0,80,0.00,,,0.00,1.000000,,2013-02-20 06:42:00,
2013-02-20 01:52:00,10.0,5.0,-100.00,NNW,346,9.0,23.0,80,0.00,,,0.00,1.000000,,2013-02-20 06:52:00,
2013-02-20 02:01:00,10.0,5.0,-100.00,NNW,346,9.0,23.0,80,0.00,,,0.00,1.000000,,2013-02-20 07:01:00,
2013-02-20 02:11:00,10.0,5.0,-100.00,NNW,346,9.0,23.0,80,0.00,,,0.00,1.000000,,2013-02-20 07:11:00,
2013-02-20 03:42:00,9.0,3.0,-100.00,NNW,347,11.0,18.0,77,-99.99,,,0.00,1.000000,,2013-02-20 08:42:00,
2013-02-20 03:52:00,9.0,3.0,-100.00,NNW,347,11.0,18.0,77,-99.99,,,0.00,1.000000,,2013-02-20 08:52:00,
2013-02-20 04:01:00,9.0,3.0,-100.00,NNW,347,11.0,18.0,77,-99.99,,,0.00,1.000000,,2013-02-20 09:01:00,
2013-02-20 04:11:00,9.0,3.0,-100.00,NNW,347,11.0,18.0,77,-99.99,,,0.00,1.000000,,2013-02-20 09:11:00,
2013-02-20 04:32:00,9.0,3.0,-100.00,North,354,10.0,26.0,77,0.00,,,0.00,1.000000,,2013-02-20 09:32:00,
2013-02-20 04:42:00,9.0,3.0,-100.00,North,354,10.0,26.0,77,0.00,,,0.00,1.000000,,2013-02-20 09:42:00,
2013-02-20 04:52:00,9.0,3.0,-100.00,North,354,10.0,26.0,77,0.00,,,0.00,1.000000,,2013-02-20 09:52:00,
2013-02-20 05:01:00,9.0,3.0,-100.00,North,354,10.0,26.0,77,0.00,,,0.00,1.000000,,2013-02-20 10:01:00,
2013-02-20 05:12:00,9.0,3.0,-100.00,North,354,10.0,26.0,77,0.00,,,0.00,1.000000,,2013-02-20 10:12:00,
2013-02-20 05:32:00,9.0,4.0,-100.00,North,352,10.0,18.0,78,0.00,,,0.00,1.000000,,2013-02-20 10:32:00,
2013-02-20 05:42:00,9.0,4.0,-100.00,North,352,10.0,18.0,78,0.00,,,0.00,1.000000,,2013-02-20 10:42:00,
2013-02-20 05:52:00,9.0,4.0,-100.00,North,352,10.0,18.0,78,0.00,,,0.00,1.000000,,2013-02-20 10:52:00,
2013-02-20 06:02:00,9.0,4.0,-100.00,North,352,10.0,18.0,78,0.00,,,0.00,1.000000,,2013-02-20 11:02:00,
2013-02-20 06:11:00,9.0,4.0,-100.00,North,352,10.0,18.0,78,0.00,,,0.00,1.000000,,2013-02-20 11:11:00,
2013-02-20 06:42:00,9.0,4.0,-100.00,NNW,348,10.0,23.0,78,0.00,,,0.00,1.000000,,2013-02-20 11:42:00,
2013-02-20 06:52:00,9.0,4.0,-100.00,NNW,348,10.0,23.0,78,0.00,,,0.00,1.000000,,2013-02-20 11:52:00,
2013-02-20 07:02:00,9.0,4.0,-100.00,NNW,348,10.0,23.0,78,0.00,,,0.00,1.000000,,2013-02-20 12:02:00,
2013-02-20 07:12:00,9.0,4.0,-100.00,NNW,348,10.0,23.0,78,0.00,,,0.00,1.000000,,2013-02-20 12:12:00,
2013-02-20 07:32:00,9.0,3.0,-100.00,NNW,342,10.0,23.0,77,0.00,,,0.00,1.000000,,2013-02-20 12:32:00,
2013-02-20 07:42:00,9.0,3.0,-100.00,NNW,342,10.0,23.0,77,0.00,,,0.00,1.000000,,2013-02-20 12:42:00,
2013-02-20 07:53:00,9.0,3.0,-100.00,NNW,342,10.0,23.0,77,0.00,,,0.00,1.000000,,2013-02-20 12:53:00,
2013-02-20 08:01:00,9.0,3.0,-100.00,NNW,342,10.0,23.0,77,0.00,,,0.00,1.000000,,2013-02-20 13:01:00,
2013-02-20 08:11:00,9.0,3.0,-100.00,NNW,342,10.0,23.0,77,0.00,,,0.00,1.000000,,2013-02-20 13:11:00,
2013-02-20 09:42:00,9.0,3.0,-100.00,North,354,11.0,19.0,75,-99.99,,,0.00,62.000000,,2013-02-20 14:42:00,
2013-02-20 09:52:00,9.0,3.0,-100.00,North,354,11.0,19.0,75,-99.99,,,0.00,62.000000,,2013-02-20 14:52:00,
2013-02-20 10:01:00,9.0,3.0,-100.00,North,354,11.0,19.0,75,-99.99,,,0.00,62.000000,,2013-02-20 15:01:00,
2013-02-20 10:11:00,9.0,3.0,-100.00,North,354,11.0,19.0,75,-99.99,,,0.00,62.000000,,2013-02-20 15:11:00,
2013-02-20 10:42:00,11.0,4.0,-100.00,North,358,15.0,22.0,72,0.00,,,-99.99,153.000000,,2013-02-20 15:42:00,
2013-02-20 10:52:00,11.0,4.0,-100.00,North,358,15.0,22.0,72,0.00,,,-99.99,153.000000,,2013-02-20 15:52:00,
2013-02-20 11:01:00,11.0,4.0,-100.00,North,358,15.0,22.0,72,0.00,,,-99.99,153.000000,,2013-02-20 16:01:00,
2013-02-20 11:12:00,11.0,4.0,-100.00,North,358,15.0,22.0,72,0.00,,,-99.99,153.000000,,2013-02-20 16:12:00,
2013-02-20 11:42:00,14.0,4.0,-100.00,North,9,8.0,27.0,64,0.00,,,0.00,255.000000,,2013-02-20 16:42:00,
2013-02-20 11:52:00,14.0,4.0,-100.00,North,9,8.0,27.0,64,0.00,,,0.00,255.000000,,2013-02-20 16:52:00,
2013-02-20 12:01:00,14.0,4.0,-100.00,North,9,8.0,27.0,64,0.00,,,0.00,255.000000,,2013-02-20 17:01:00,
2013-02-20 12:11:00,14.0,4.0,-100.00,North,9,8.0,27.0,64,0.00,,,0.00,255.000000,,2013-02-20 17:11:00,
2013-02-20 12:42:00,14.0,3.0,-100.00,North,355,9.0,19.0,62,0.00,,,0.00,294.000000,,2013-02-20 17:42:00,
2013-02-20 12:52:00,14.0,3.0,-100.00,North,355,9.0,19.0,62,0.00,,,0.00,294.000000,,2013-02-20 17:52:00,
2013-02-20 13:02:00,14.0,3.0,-100.00,North,355,9.0,19.0,62,0.00,,,0.00,294.000000,,2013-02-20 18:02:00,
2013-02-20 13:11:00,14.0,3.0,-100.00,North,355,9.0,19.0,62,0.00,,,0.00,294.000000,,2013-02-20 18:11:00,
2013-02-20 13:32:00,17.0,5.0,-100.00,North,359,8.0,17.0,59,0.00,,,0.00,559.000000,,2013-02-20 18:32:00,
2013-02-20 13:42:00,17.0,5.0,-100.00,North,359,8.0,17.0,59,0.00,,,0.00,559.000000,,2013-02-20 18:42:00,
2013-02-20 13:52:00,17.0,5.0,-100.00,North,359,8.0,17.0,59,0.00,,,0.00,559.000000,,2013-02-20 18:52:00,
2013-02-20 14:01:00,17.0,5.0,-100.00,North,359,8.0,17.0,59,0.00,,,0.00,559.000000,,2013-02-20 19:01:00,
2013-02-20 14:11:00,17.0,5.0,-100.00,North,359,8.0,17.0,59,0.00,,,0.00,559.000000,,2013-02-20 19:11:00,
2013-02-20 14:32:00,16.0,6.0,-100.00,NNW,345,10.0,16.0,63,0.00,,,0.00,371.000000,,2013-02-20 19:32:00,
2013-02-20 14:42:00,16.0,6.0,-100.00,NNW,345,10.0,16.0,63,0.00,,,0.00,371.000000,,2013-02-20 19:42:00,
2013-02-20 14:52:00,16.0,6.0,-100.00,NNW,345,10.0,16.0,63,0.00,,,0.00,371.000000,,2013-02-20 19:52:00,
2013-02-20 15:01:00,16.0,6.0,-100.00,NNW,345,10.0,16.0,63,0.00,,,0.00,371.000000,,2013-02-20 20:01:00,
2013-02-20 15:11:00,16.0,6.0,-100.00,NNW,345,10.0,16.0,63,0.00,,,0.00,371.000000,,2013-02-20 20:11:00,
2013-02-20 15:41:00,15.0,4.0,-100.00,NNW,344,11.0,17.0,62,0.00,,,0.00,410.000000,,2013-02-20 20:41:00,
2013-02-20 15:52:00,15.0,4.0,-100.00,NNW,344,11.0,17.0,62,0.00,,,0.00,410.000000,,2013-02-20 20:52:00,
2013-02-20 16:01:00,15.0,4.0,-100.00,NNW,344,11.0,17.0,62,0.00,,,0.00,410.000000,,2013-02-20 21:01:00,
2013-02-20 16:11:00,15.0,4.0,-100.00,NNW,344,11.0,17.0,62,0.00,,,0.00,410.000000,,2013-02-20 21:11:00,
2013-02-20 16:42:00,15.0,5.0,-100.00,NNW,345,7.0,17.0,65,0.00,,,0.00,261.000000,,2013-02-20 21:42:00,
2013-02-20 16:52:00,15.0,5.0,-100.00,NNW,345,7.0,17.0,65,0.00,,,0.00,261.000000,,2013-02-20 21:52:00,
2013-02-20 17:01:00,15.0,5.0,-100.00,NNW,345,7.0,17.0,65,0.00,,,0.00,261.000000,,2013-02-20 22:01:00,
2013-02-20 17:11:00,15.0,5.0,-100.00,NNW,345,7.0,17.0,65,0.00,,,0.00,261.000000,,2013-02-20 22:11:00,
2013-02-20 17:43:00,14.0,4.0,-100.00,NNW,338,10.0,14.0,64,0.00,,,-99.99,156.000000,,2013-02-20 22:43:00,
2013-02-20 17:52:00,14.0,4.0,-100.00,NNW,338,10.0,14.0,64,0.00,,,-99.99,156.000000,,2013-02-20 22:52:00,
2013-02-20 18:01:00,14.0,4.0,-100.00,NNW,338,10.0,14.0,64,0.00,,,-99.99,156.000000,,2013-02-20 23:01:00,
2013-02-20 18:12:00,14.0,4.0,-100.00,NNW,338,10.0,14.0,64,0.00,,,-99.99,156.000000,,2013-02-20 23:12:00,
2013-02-20 18:32:00,13.0,3.0,-100.00,NW,316,5.0,15.0,64,0.00,,,0.00,55.000000,,2013-02-20 23:32:00,
2013-02-20 18:42:00,13.0,3.0,-100.00,NW,316,5.0,15.0,64,0.00,,,0.00,55.000000,,2013-02-20 23:42:00,
2013-02-20 18:52:00,13.0,3.0,-100.00,NW,316,5.0,15.0,64,0.00,,,0.00,55.000000,,2013-02-20 23:52:00,
2013-02-20 19:03:00,13.0,3.0,-100.00,NW,316,5.0,15.0,64,0.00,,,0.00,55.000000,,2013-02-21 00:03:00,
2013-02-20 19:11:00,13.0,3.0,-100.00,NW,316,5.0,15.0,64,0.00,,,0.00,55.000000,,2013-02-21 00:11:00,
2013-02-20 19:32:00,7.0,-2.0,-100.00,NNW,338,5.0,11.0,66,0.00,,,0.00,4.000000,,2013-02-21 00:32:00,
2013-02-20 19:42:00,7.0,-2.0,-100.00,NNW,338,5.0,11.0,66,0.00,,,0.00,4.000000,,2013-02-21 00:42:00,
2013-02-20 19:52:00,7.0,-2.0,-100.00,NNW,338,5.0,11.0,66,0.00,,,0.00,4.000000,,2013-02-21 00:52:00,
2013-02-20 20:01:00,7.0,-2.0,-100.00,NNW,338,5.0,11.0,66,0.00,,,0.00,4.000000,,2013-02-21 01:01:00,
2013-02-20 20:11:00,7.0,-2.0,-100.00,NNW,338,5.0,11.0,66,0.00,,,0.00,4.000000,,2013-02-21 01:11:00,
2013-02-20 20:32:00,7.0,1.0,-100.00,WSW,241,3.0,5.0,75,0.00,,,0.00,1.000000,,2013-02-21 01:32:00,
2013-02-20 20:42:00,7.0,1.0,-100.00,WSW,241,3.0,5.0,75,0.00,,,0.00,1.000000,,2013-02-21 01:42:00,
2013-02-20 20:52:00,7.0,1.0,-100.00,WSW,241,3.0,5.0,75,0.00,,,0.00,1.000000,,2013-02-21 01:52:00,
2013-02-20 21:01:00,7.0,1.0,-100.00,WSW,241,3.0,5.0,75,0.00,,,0.00,1.000000,,2013-02-21 02:01:00,
2013-02-20 21:11:00,7.0,1.0,-100.00,WSW,241,3.0,5.0,75,0.00,,,0.00,1.000000,,2013-02-21 02:11:00,
2013-02-20 21:32:00,1.0,-6.0,-100.00,SE,143,1.0,6.0,73,0.00,,,0.00,1.000000,,2013-02-21 02:32:00,
2013-02-20 21:42:00,1.0,-6.0,-100.00,SE,143,1.0,6.0,73,0.00,,,0.00,1.000000,,2013-02-21 02:42:00,
2013-02-20 21:52:00,1.0,-6.0,-100.00,SE,143,1.0,6.0,73,0.00,,,0.00,1.000000,,2013-02-21 02:52:00,
2013-02-20 22:02:00,1.0,-6.0,-100.00,SE,143,1.0,6.0,73,0.00,,,0.00,1.000000,,2013-02-21 03:02:00,
2013-02-20 22:12:00,1.0,-6.0,-100.00,SE,143,1.0,6.0,73,0.00,,,0.00,1.000000,,2013-02-21 03:12:00,
2013-02-20 22:42:00,-2.0,-7.0,-100.00,NW,322,2.0,4.0,77,0.00,,,0.00,1.000000,,2013-02-21 03:42:00,
2013-02-20 22:52:00,-2.0,-7.0,-100.00,NW,322,2.0,4.0,77,0.00,,,0.00,1.000000,,2013-02-21 03:52:00,
2013-02-20 23:01:00,-2.0,-7.0,-100.00,NW,322,2.0,4.0,77,0.00,,,0.00,1.000000,,2013-02-21 04:01:00,
2013-02-20 23:11:00,-2.0,-7.0,-100.00,NW,322,2.0,4.0,77,0.00,,,0.00,1.000000,,2013-02-21 04:11:00,
2013-02-20 23:32:00,-4.0,-10.0,-100.00,WSW,257,0.0,2.0,75,0.00,,,0.00,1.000000,,2013-02-21 04:32:00,
2013-02-20 23:42:00,-4.0,-10.0,-100.00,WSW,257,0.0,2.0,75,0.00,,,0.00,1.000000,,2013-02-21 04:42:00,
2013-02-20 23:52:00,-4.0,-10.0,-100.00,WSW,257,0.0,2.0,75,0.00,,,0.00,1.000000,,2013-02-21 04:52:00,